Zurück zum Katalog

SL-16 DEB

AktivLEO
NORAD 22426·DEBRIS·🇷🇺 Russia

Gestartet Dec 25, 1992 von Baikonur Cosmodrome

Loading…

Nächste Überflüge (nächste 24 Stunden)

TLE

AktuellSource: Space-Track

Epoche: Sep 14, 2026, 08:00 UTC

1 22426U 92093DT  26257.33347594  .00001141  00000-0  43053-3 0  9994
2 22426  71.3462  99.3472 0119294  67.5977 105.6334 14.29485580735926

Verfolge SL-16 DEB in Echtzeit mit AllMySat

Download on the App Store